TimeEST,TemperatureF,Dew PointF,Humidity,Sea Level PressureIn,VisibilityMPH,Wind Direction,Wind SpeedMPH,Gust SpeedMPH,PrecipitationIn,Events,Conditions,WindDirDegrees,DateUTC
12:15 AM,53.6,50.0,88,30.21,10.0,WNW,5.8,-,N/A,,Mostly Cloudy,290,2013-01-07 05:15:00
12:35 AM,51.8,50.0,94,30.21,10.0,WNW,3.5,-,N/A,,Scattered Clouds,290,2013-01-07 05:35:00
12:55 AM,51.8,48.2,88,30.22,10.0,WNW,3.5,-,N/A,,Clear,290,2013-01-07 05:55:00
1:15 AM,51.8,48.2,88,30.22,10.0,WNW,3.5,-,N/A,,Clear,300,2013-01-07 06:15:00
1:35 AM,51.8,48.2,88,30.22,10.0,WNW,3.5,-,N/A,,Clear,300,2013-01-07 06:35:00
1:55 AM,51.8,48.2,88,30.21,10.0,NW,5.8,-,N/A,,Clear,320,2013-01-07 06:55:00
2:15 AM,51.8,48.2,88,30.22,10.0,NW,6.9,-,N/A,,Clear,320,2013-01-07 07:15:00
2:35 AM,51.8,46.4,82,30.22,10.0,NNW,8.1,-,N/A,,Clear,330,2013-01-07 07:35:00
2:55 AM,51.8,44.6,76,30.22,10.0,NNW,8.1,-,N/A,,Clear,340,2013-01-07 07:55:00
3:15 AM,51.8,44.6,76,30.23,10.0,NNW,9.2,-,N/A,,Clear,330,2013-01-07 08:15:00
3:35 AM,50.0,44.6,82,30.23,10.0,NNW,6.9,-,N/A,,Clear,340,2013-01-07 08:35:00
3:55 AM,50.0,42.8,76,30.23,10.0,NNW,5.8,-,N/A,,Clear,340,2013-01-07 08:55:00
4:15 AM,50.0,42.8,76,30.24,10.0,NNW,8.1,-,N/A,,Clear,340,2013-01-07 09:15:00
4:35 AM,48.2,42.8,82,30.24,10.0,North,4.6,-,N/A,,Clear,350,2013-01-07 09:35:00
4:55 AM,48.2,41.0,76,30.23,10.0,North,6.9,-,N/A,,Clear,350,2013-01-07 09:55:00
5:15 AM,48.2,41.0,76,30.24,10.0,North,4.6,-,N/A,,Clear,360,2013-01-07 10:15:00
5:35 AM,46.4,41.0,81,30.24,10.0,North,4.6,-,N/A,,Clear,360,2013-01-07 10:35:00
5:55 AM,46.4,41.0,81,30.25,10.0,North,5.8,-,N/A,,Clear,360,2013-01-07 10:55:00
6:15 AM,46.4,41.0,81,30.25,10.0,North,5.8,-,N/A,,Clear,360,2013-01-07 11:15:00
6:35 AM,44.6,41.0,87,30.26,10.0,North,5.8,-,N/A,,Clear,360,2013-01-07 11:35:00
6:55 AM,44.6,41.0,87,30.26,10.0,NNE,4.6,-,N/A,,Clear,20,2013-01-07 11:55:00
7:15 AM,44.6,41.0,87,30.28,10.0,Calm,Calm,-,N/A,,Clear,0,2013-01-07 12:15:00
7:35 AM,42.8,41.0,93,30.29,10.0,Calm,Calm,-,N/A,,Clear,0,2013-01-07 12:35:00
7:55 AM,42.8,41.0,93,30.29,7.0,Calm,Calm,-,N/A,,Clear,0,2013-01-07 12:55:00
8:15 AM,44.6,41.0,87,30.30,10.0,North,4.6,-,N/A,,Clear,360,2013-01-07 13:15:00
8:35 AM,46.4,42.8,87,30.31,10.0,North,6.9,-,N/A,,Clear,360,2013-01-07 13:35:00
8:55 AM,48.2,42.8,82,30.32,10.0,North,3.5,-,N/A,,Mostly Cloudy,360,2013-01-07 13:55:00
9:15 AM,50.0,44.6,82,30.32,10.0,NNE,5.8,-,N/A,,Overcast,20,2013-01-07 14:15:00
9:35 AM,50.0,44.6,82,30.33,10.0,North,5.8,-,N/A,,Scattered Clouds,10,2013-01-07 14:35:00
9:55 AM,51.8,44.6,76,30.33,10.0,NNE,8.1,-,N/A,,Clear,20,2013-01-07 14:55:00
10:15 AM,53.6,46.4,77,30.33,10.0,NNE,6.9,-,N/A,,Clear,30,2013-01-07 15:15:00
10:35 AM,55.4,48.2,77,30.34,10.0,NNE,6.9,-,N/A,,Clear,20,2013-01-07 15:35:00
10:55 AM,57.2,50.0,77,30.34,10.0,NE,12.7,17.3,N/A,,Clear,40,2013-01-07 15:55:00
11:15 AM,59.0,48.2,67,30.33,10.0,NE,16.1,21.9,N/A,,Clear,50,2013-01-07 16:15:00
11:35 AM,59.0,48.2,67,30.32,10.0,NE,15.0,20.7,N/A,,Clear,50,2013-01-07 16:35:00
11:55 AM,59.0,48.2,67,30.31,10.0,NE,13.8,20.7,N/A,,Clear,40,2013-01-07 16:55:00
12:15 PM,60.8,50.0,68,30.30,10.0,NNE,11.5,25.3,N/A,,Clear,20,2013-01-07 17:15:00
12:35 PM,59.0,50.0,72,30.31,10.0,NE,13.8,18.4,N/A,,Clear,40,2013-01-07 17:35:00
12:55 PM,59.0,50.0,72,30.30,10.0,NE,10.4,17.3,N/A,,Clear,40,2013-01-07 17:55:00
1:15 PM,59.0,48.2,67,30.30,10.0,NNE,11.5,16.1,N/A,,Clear,30,2013-01-07 18:15:00
1:35 PM,59.0,48.2,67,30.30,10.0,NNE,11.5,17.3,N/A,,Clear,20,2013-01-07 18:35:00
1:55 PM,59.0,48.2,67,30.29,10.0,NNE,11.5,18.4,N/A,,Clear,30,2013-01-07 18:55:00
2:15 PM,59.0,48.2,67,30.29,10.0,NNE,13.8,17.3,N/A,,Clear,30,2013-01-07 19:15:00
2:35 PM,59.0,48.2,67,30.30,10.0,NE,12.7,20.7,N/A,,Clear,50,2013-01-07 19:35:00
2:55 PM,59.0,50.0,72,30.30,10.0,NNE,11.5,18.4,N/A,,Clear,30,2013-01-07 19:55:00
3:15 PM,59.0,48.2,67,30.30,10.0,NNE,13.8,19.6,N/A,,Clear,20,2013-01-07 20:15:00
3:35 PM,57.2,48.2,72,30.31,10.0,NNE,11.5,17.3,N/A,,Clear,30,2013-01-07 20:35:00
3:55 PM,57.2,50.0,77,30.31,10.0,NNE,10.4,-,N/A,,Clear,30,2013-01-07 20:55:00
4:15 PM,57.2,50.0,77,30.31,10.0,NNE,11.5,-,N/A,,Clear,30,2013-01-07 21:15:00
4:35 PM,55.4,50.0,82,30.31,10.0,NNE,10.4,-,N/A,,Clear,30,2013-01-07 21:35:00
4:55 PM,55.4,50.0,82,30.31,10.0,NNE,12.7,-,N/A,,Clear,30,2013-01-07 21:55:00
5:15 PM,55.4,50.0,82,30.31,10.0,NE,12.7,17.3,N/A,,Clear,40,2013-01-07 22:15:00
5:35 PM,55.4,50.0,82,30.31,10.0,NNE,10.4,-,N/A,,Clear,30,2013-01-07 22:35:00
5:55 PM,55.4,50.0,82,30.31,10.0,NE,10.4,18.4,N/A,,Clear,40,2013-01-07 22:55:00
6:15 PM,55.4,50.0,82,30.33,10.0,NE,8.1,-,N/A,,Clear,40,2013-01-07 23:15:00
6:35 PM,55.4,50.0,82,30.34,10.0,NNE,8.1,-,N/A,,Clear,30,2013-01-07 23:35:00
6:55 PM,55.4,48.2,77,30.32,10.0,NNE,10.4,17.3,N/A,,Clear,30,2013-01-07 23:55:00
7:15 PM,55.4,46.4,72,30.33,10.0,NNE,6.9,-,N/A,,Clear,30,2013-01-08 00:15:00
7:35 PM,55.4,46.4,72,30.33,10.0,NNE,6.9,-,N/A,,Clear,30,2013-01-08 00:35:00
7:55 PM,55.4,46.4,72,30.32,10.0,NE,10.4,-,N/A,,Clear,40,2013-01-08 00:55:00
8:15 PM,55.4,48.2,77,30.32,10.0,NE,11.5,-,N/A,,Clear,40,2013-01-08 01:15:00
8:35 PM,55.4,50.0,82,30.32,10.0,NE,11.5,17.3,N/A,,Clear,40,2013-01-08 01:35:00
8:55 PM,55.4,50.0,82,30.32,10.0,NE,12.7,16.1,N/A,,Clear,40,2013-01-08 01:55:00
9:15 PM,55.4,50.0,82,30.32,10.0,NE,9.2,16.1,N/A,,Clear,40,2013-01-08 02:15:00
9:35 PM,55.4,50.0,82,30.32,10.0,NE,10.4,-,N/A,,Clear,40,2013-01-08 02:35:00
9:55 PM,55.4,50.0,82,30.31,10.0,NE,10.4,-,N/A,,Clear,40,2013-01-08 02:55:00
10:15 PM,55.4,50.0,82,30.31,10.0,NE,8.1,-,N/A,,Scattered Clouds,40,2013-01-08 03:15:00
10:35 PM,55.4,50.0,82,30.30,10.0,NE,8.1,-,N/A,,Mostly Cloudy,50,2013-01-08 03:35:00
10:55 PM,55.4,50.0,82,30.30,10.0,NE,8.1,-,N/A,,Overcast,40,2013-01-08 03:55:00
11:15 PM,55.4,50.0,82,30.30,10.0,NE,9.2,-,N/A,,Overcast,50,2013-01-08 04:15:00
11:35 PM,55.4,51.8,88,30.29,10.0,NE,9.2,-,N/A,,Overcast,50,2013-01-08 04:35:00
11:55 PM,55.4,51.8,88,30.29,10.0,NE,9.2,-,N/A,,Scattered Clouds,50,2013-01-08 04:55:00